Location: *
(46.1833°N, 22.7667°E)
Time: 14:42:17
(UTC+00:00)

Resurs 01 Rocket - Pass Details

Date: 17 September 2019
Orbit: 635 x 644 km, 98.0° (Epoch: 21 October)

Event Time Altitude Azimuth Distance (km) Brightness Sun altitude
Exits shadow 18:42:04 59° 135° (SE) 746 1.6 -21.5°
Maximum altitude 18:42:48 74° 74° (ENE) 672 1.5 -21.6°
Drops below altitude 10° 18:47:15 10° 350° (N) 2,047 4.7 -22.3°
Sets 18:49:29 0° 349° (N) 2,963 5.6 -22.6°
